DECAYED

CZ-6A DEB, 61433 (Decayed)

Orbit data source: Space-Track

CZ-6A DEB, 61433 was space debris in LEO originally from a launch on Tue, 06 Aug 2024 UTC launched from the Taiyaun Space Center, China (TSC). Debris objects in space refer to the collection of defunct objects orbiting the Earth. Examples of debris include non-operational satellites, rocket bodies, and fragments generated from explosions, collisions, or faulty payload assembly.

Not visible in the next 10 days
Identifier
61433, 2024-140ZA
Orbit
Decayed
Country
Flag of CNCN / PRC
Related business
Manufacturer
SAST
Mission
Decayed spacecraft
Bus & Motor
Unknown
Mass
Unknown
Launch date (UTC)
2024-08-06 (2 years ago)
Launch vehicle
Unknown
Launch site
Taiyaun Space Center, China (TSC)
Object type
Payload
Rocket body
Debris
Shape & HBR
Unknown shape, 0.1 m
Radar Cross Section
Medium (>0.1 m² and <1 m²)

Expand to show TLE details & history
Last TLE update: 7 months ago

TLE from 7 months ago
0 CZ-6A DEB
1 61433U 24140ZA  25309.46890204  .02747119  00000-0  54697-1 0  9993
2 61433  88.9721 297.1174 0032838 122.3533 238.0911 15.42601651 64148
Epoch: 2025-11-05T11:15Z
TLE epoch observation values (Epoch: 2025-11-05T11:15:13.136Z)
Latitude
-0.00001°
Longitude
83.37154°
Altitude
453.548 km
Speed
7.634 km/s
True Right ascension
19h 48m 28s
True Declination
0° 00' 00"
Sunlit
Object was in daylight at epoch
Visualization orbit readout
Latitude
Unknown
Longitude
Unknown
Altitude
Unknown
Speed
Unknown
Apparent Right ascension
Unknown
Apparent Declination
Unknown
Sunlit
N/A
Visualization observer readout
Local Sidereal Time
07:20:15
Azimuth
Unknown
Elevation
Unknown
Doppler factor
Unknown
Orbital elements
Apogee altitude
457.586 km
Perigee altitude
412.839 km
Semi-major axis
6,813.349 km
Eccentricity
0.00328
Inclination
88.9721°
RAAN
297.1174°
Arg. of periapsis
122.3533°
True anomaly
237.77236°
Mean anomaly
238.0911°
Eccentric anomaly
237.93166°
Mean motion
3.85924 °/min
Orbital period
93.28 mins
BSTAR
0.054697
Loading maneuver chart data...
Computing Atmospheric mass density...
Loading historical data...
Loading historical data...
Loading historical data...
Loading historical data...
Loading historical data...
Loading historical data...
Loading historical data...

Documentation

Showing up to 5 results
|